カタログに戻る

MONITOR-E/SL-19

運用中科学SSO
NORAD 27840·PAYLOAD·🇷🇺 Russia

打ち上げ Jun 30, 2003 から Plesetsk Cosmodrome

Loading…

次のパス (今後24時間)

TLE

最新Source: Space-Track

元期: Sep 14, 2026, 08:57 UTC

1 27840U 03031A   26257.37345905  .00000046  00000-0  28042-4 0  9996
2 27840  98.6410 237.9526 0098031  75.8191 285.3864 14.39841804218837

AllMySatでMONITOR-E/SL-19をリアルタイム追跡

Download on the App Store